This is the latest recevied weather packets stored in our database for station/object M0ADS. If no packets are shown the sender has not sent any weather packets the latest 10 day(s).
| Time | Temp. | Humidity | Pressure | Rain* | Wind** | Luminosity | Snow |
|---|---|---|---|---|---|---|---|
| 1777583923 | 11.67° C | 58% | 1021.9 hPa | 0 mm | - | - | - |
| 1777583023 | 12.22° C | 55% | 1021.8 hPa | 0 mm | - | - | - |
| 1777582124 | 12.22° C | 54% | 1021.8 hPa | 0 mm | - | - | - |
| 1777581224 | 12.78° C | 53% | 1021.6 hPa | 0 mm | - | - | - |
| 1777580321 | 12.78° C | 51% | 1021.5 hPa | 0 mm | - | - | - |
| 1777579421 | 13.33° C | 50% | 1021.5 hPa | 0 mm | - | - | - |
| 1777578521 | 13.89° C | 48% | 1021.6 hPa | 0 mm | - | - | - |
| 1777577619 | 14.44° C | 47% | 1021.5 hPa | 0 mm | - | - | - |
| 1777576717 | 14.44° C | 48% | 1021.5 hPa | 0 mm | - | - | - |
| 1777575817 | 15° C | 47% | 1021.3 hPa | 0 mm | - | - | - |
| 1777574917 | 15.56° C | 46% | 1021.1 hPa | 0 mm | - | - | - |
| 1777574016 | 16.11° C | 45% | 1020.9 hPa | 0 mm | - | - | - |
| 1777573116 | 16.67° C | 43% | 1020.8 hPa | 0 mm | - | - | - |
| 1777572217 | 17.22° C | 42% | 1020.7 hPa | 0 mm | - | - | - |
| 1777571317 | 18.33° C | 41% | 1020.8 hPa | 0 mm | - | - | - |
| 1777570414 | 18.33° C | 37% | 1020.7 hPa | 0 mm | - | - | - |
| 1777569515 | 19.44° C | 38% | 1020.8 hPa | 0 mm | - | - | - |
| 1777568614 | 19.44° C | 39% | 1020.8 hPa | 0 mm | - | - | - |
| 1777567712 | 19.44° C | 39% | 1020.8 hPa | 0 mm | - | - | - |
| 1777566813 | 19.44° C | 40% | 1020.9 hPa | 0 mm | - | - | - |
| 1777565912 | 20° C | 39% | 1021 hPa | 0 mm | - | - | - |
| 1777565012 | 20° C | 38% | 1021 hPa | 0 mm | - | - | - |
| 1777564112 | 20° C | 37% | 1021.2 hPa | 0 mm | - | - | - |
| 1777563213 | 20° C | 39% | 1021.1 hPa | 0 mm | - | - | - |
| 1777562313 | 20.56° C | 38% | 1021.2 hPa | 0 mm | - | - | - |
* Rain latest hour (hover to see other rain measurements)
** Current wind speed in m/s (hover to see current wind gust speed)